Location: Tamazert
(32.6352°N, 5.2072°W)
Time: 22:39:10
(UTC+00:00)

ADEOS Rocket - Pass Details

Date: 22 May 2022
Orbit: 859 x 1305 km, 98.8° (Epoch: 24 June)

Event Time Altitude Azimuth Distance (km) Brightness Sun altitude
Exits shadow 00:27:49 35° 345° (NNW) 1,393 4.1 -37.0°
Drops below altitude 10° 00:30:58 10° 347° (NNW) 2,572 5.9 -36.9°
Sets 00:33:26 0° 347° (NNW) 3,558 6.8 -36.9°
